User: anonymous   Login
Location: Unspecified
(0.0000°N, 0.0000°E)
Time: 22:44:33
(UTC+00:00)
Language:

RISAT 1 - Orbit

View from above orbital plane
View from above orbital plane
View from above satellite
View from above satellite

Ground track
Ground track

The orbit data is extracted from the following two-line orbital elements,

1 38248U 12017A   18109.79134639  .00000070  00000-0  82904-5 0  9992
2 38248  97.5731 118.6219 0006072  72.5753  48.9112 15.09473122329486
Epoch (UTC): 19 April 2018 18:59:32
Eccentricity: 0.0006072
inclination: 97.5731°
perigee height: 533 km
apogee height: 542 km
right ascension of ascending node: 118.6219°
argument of perigee: 72.5753°
revolutions per day: 15.09473122
mean anomaly at epoch: 48.9112°
orbit number at epoch: 32948

The dashed part of the orbit path shows where the satellite is in the earth's shadow,  

DLR